Date,TemperatureHighF,TemperatureAvgF,TemperatureLowF,DewpointHighF,DewpointAvgF,DewpointLowF,HumidityHigh,HumidityAvg,HumidityLow,PressureMaxIn,PressureMinIn,WindSpeedMaxMPH,WindSpeedAvgMPH,GustSpeedMaxMPH,PrecipitationSumIn
2013-2-1,66,58,51,-100,-100,-100,0,0,100,30.40,30.26,15,7,23,0.00
2013-2-2,69,59,53,-100,-100,-100,0,0,100,30.34,30.19,10,6,15,0.00
2013-2-3,68,59,53,-100,-100,-100,0,0,100,30.24,30.13,14,5,17,0.00
2013-2-4,66,59,53,-100,-100,-100,0,0,100,30.18,30.08,10,-3,13,0.00
2013-2-5,71,63,57,-100,-100,-100,0,0,100,30.13,30.04,11,-30,14,0.00
2013-2-6,75,68,62,-100,-100,-100,0,0,100,30.14,30.06,11,4,13,0.00
2013-2-7,75,69,64,-100,-100,-100,0,0,100,30.09,29.87,35,11,42,0.00
2013-2-8,74,67,61,-100,-100,-100,0,0,100,30.12,29.93,16,8,20,0.00
2013-2-9,75,65,58,-100,-100,-100,0,0,100,30.24,30.10,11,6,18,0.00
2013-2-10,77,69,63,-100,-100,-100,0,0,100,30.28,30.16,15,7,17,0.00
2013-2-11,76,69,64,-100,-100,-100,0,0,100,30.23,30.12,18,10,24,0.00
2013-2-12,75,71,66,-100,-100,-100,0,0,100,30.14,29.99,22,10,28,0.00
2013-2-13,75,70,63,-100,-100,-100,0,0,100,30.04,29.90,21,12,34,0.00
2013-2-14,66,46,60,-100,-100,-100,0,0,100,30.08,29.96,13,-196,17,0.00
2013-2-15,65,27,57,-100,-100,-100,0,0,100,30.12,29.99,9,-447,13,0.00
2013-2-16,65,22,56,-100,-100,-100,0,0,100,30.16,29.98,20,-373,30,0.00
2013-2-17,54,18,43,-100,-100,-100,0,0,100,30.37,30.16,17,-378,27,0.00
2013-2-18,67,25,46,-100,-100,-100,0,0,100,30.40,30.24,14,-434,19,0.00
2013-2-19,71,21,59,-100,-100,-100,0,0,100,30.24,30.14,19,-272,24,0.00
2013-2-20,69,27,62,-100,-100,-100,0,0,100,30.13,30.09,8,-410,11,0.00
2013-2-21,76,24,62,-100,-100,-100,0,0,100,30.14,30.02,12,-354,16,0.00
2013-2-22,77,34,64,-100,-100,-100,0,0,100,30.10,30.03,18,-487,22,0.00
2013-2-23,76,31,68,-100,-100,-100,0,0,100,30.04,29.93,19,-417,25,0.00
2013-2-24,75,27,68,-100,-100,-100,0,0,100,29.99,29.91,12,-389,18,0.00
2013-2-25,77,23,67,-100,-100,-100,0,0,100,29.93,29.81,17,-319,22,0.00
2013-2-26,75,30,68,-100,-100,-100,0,0,100,29.92,29.73,24,-418,30,0.00
2013-2-27,69,27,60,-100,-100,-100,0,0,100,30.01,29.90,15,-407,18,0.00
2013-2-28,69,28,58,-100,-100,-100,0,0,100,30.04,29.95,16,-433,23,0.00